Regional Weather Roundup
Issued by NWS Wakefield, VA

Home | Current Version | Previous Version | Graphics & Text | Print | Product List | Glossary On
Versions: 1 2 3 4 5 6 7 8 9 10 11 12 13 14 15 16 17 18 19 20 21 22 23 24 25 26 27 28 29 30 31 32 33 34 35 36 37 38 39 40 41 42 43 44 45 46 47 48 49 50
964
ASUS41 KAKQ 280515
RWRAKQ

REGIONAL WEATHER ROUNDUP
NATIONAL WEATHER SERVICE WAKEFIELD VA
100 AM EDT THU JUL 28 2016

Note: "fair" indicates few or no clouds below 12,000 feet with no
significant weather and/or obstructions to visibility. * = Denotes
station may not report precipitation (e.g., rain,snow,etc.),
thunder or fog.

VAZ042-051-052>054-056-280600-
NORTHERN VIRGINIA

CITY           SKY/WX    TMP DP  RH WIND       PRES   REMARKS
WASH NATIONAL  FAIR      83  74  74 S5        29.91S
DULLES         MOCLDY    75  71  87 CALM      29.93R
FORT BELVOIR   FAIR      76  73  88 CALM      29.91S
QUANTICO       FAIR      81  76  84 CALM      29.92R
FREDERICKSBRG* FAIR      79  74  86 CALM      29.91S
STAFFORD*      FAIR      74  73  95 CALM      29.95S FOG
WARRENTON      FAIR      74  69  83 CALM      29.92S
CULPEPER*      FAIR      74  74 100 CALM      29.94R FOG
MANASSAS*      MOCLDY    75  73  94 S3        29.92R
LEESBURG*      FAIR      77  73  88 SW3       29.93S
WINCHESTER     FAIR      72  70  94 CALM      29.95R
FRONT ROYAL*   FAIR      72  70  94 S5        29.93S
LURAY*         NOT AVBL
$$

VAZ048-049-060>072-079>083-280600-
CENTRAL AND SOUTH CENTRAL VIRGINIA

CITY           SKY/WX    TMP DP  RH WIND       PRES   REMARKS
RICHMOND       FAIR      76  73  91 S8        29.93S
CHESTERFIELD*  FAIR      75  63  64 CALM      29.95S
PETERSBURG*    FAIR     N/A N/A N/A CALM      29.93F
HANOVER        FAIR      78  72  81 SW5       29.94F
TAPPAHANNOCK*  FAIR      76  76 100 CALM      29.93S
QUINTON*       MOCLDY    77  76  96 CALM      29.93R
CHARLOTTSVILLE FAIR      76  73  91 CALM      29.94S
GORDONSVILLE*  MOCLDY    73  73 100 S8        29.94R
ORANGE*          N/A     73  73 100 CALM      29.96R
LOUISA*        FAIR      77  75  94 CALM      29.94R
BUMPASS*       FAIR      73  73  99 SW5       29.94R
FARMVILLE*     FAIR     N/A N/A N/A CALM      29.94F HAZE
CREWE*         NOT AVBL
FORT PICKETT*  FAIR      73  73  97 CALM      29.95F
CHASE CITY*    FAIR      74  72  95 CALM      29.96S
CLARKSVILLE*   FAIR      73  73 100 CALM      29.95S
SOUTH HILL*    FAIR      74  73  99 CALM      30.00F
LAWRENCEVILLE* FAIR      76  76 100 CALM      29.94F
EMPORIA*         N/A     77  73  88 CALM      29.95S
$$

VAZ088>098-280600-
SOUTHEAST VIRGINIA

CITY           SKY/WX    TMP DP  RH WIND       PRES   REMARKS
NORFOLK        FAIR      83  78  85 S5        29.91F
VIRGINIA BEACH CLOUDY    88  78  72 CALM      29.90F HX 101
NORFOLK NAVAL  CLOUDY    84  78  82 SE5       29.92F HX  95
WEST POINT*    FAIR      75  73  95 CALM      29.93F
SALUDA*        FAIR      75  75 100 CALM      29.92R
NEWPORT NEWS   FAIR      80  77  90 N3        29.92S
LANGLEY AFB    TSTM      81  79  94 S5        29.91S
FORT EUSTIS    FAIR      80  77  92 W3        29.91R
WILLIAMSBURG*  FAIR      79  79 100 W3        29.94R
HR EXEC AP*    MOCLDY    81  77  89 CALM      29.93F
FRANKLIN*      FAIR      77  75  95 E3        29.93R
US460-WAKEFLD  MOCLDY    77  75  93 CALM      29.93S FOG
$$

VAZ020-022-025-037-045-280600-
WEST CENTRAL AND SOUTHWEST VIRGINIA

CITY           SKY/WX    TMP DP  RH WIND       PRES   REMARKS
STAUNTON*      FOG       69  69 100 CALM      30.00S VSB 1
WAYNESBORO*    FAIR      70  68  96 CALM      30.00S
HOT SPRINGS VA FAIR      70  64  83 W8        30.13S
LYNCHBURG      FAIR      72  71  97 S3        29.99R
DANVILLE       MOCLDY    73  72  96 SW3       29.97S
SOUTH BOSTON*  MOCLDY   N/A N/A N/A CALM      29.96S
MARTINSVILLE   FAIR      71  70  97 CALM      30.01S FOG
ROANOKE        FAIR      75  74  96 N5        30.00S
BLACKSBURG     FOG       73  73 100 CALM      30.08R VSB 1/4
DUBLIN*        FAIR      73  73  99 CALM      30.06S
MARION*        MOCLDY    72  70  96 CALM      30.10S
HILLSVILLE*    FAIR      70  70 100 CALM      30.07F
RICHLANDS*     RAIN      71  71 100 NE3       30.09R VSB 1/4
WISE*          MOCLDY    70  68  94 SW3       30.11R
ABINGDON*      FAIR      76  72  86 SW3       30.06S
$$

MDZ021>025-VAZ099-100-280600-
SOUTHERN MARYLAND AND THE DELMARVA PENINSULA

CITY           SKY/WX    TMP DP  RH WIND       PRES   REMARKS
PATUXENT RIVER PTCLDY    80  72  76 SW7       29.91R
BAY BRIDGE APT MOCLDY    79  75  89 CALM      29.91R
LEONARDTOWN      N/A    N/A N/A N/A MISG        N/A
DOVER          PTCLDY    77  77 100 CALM      29.90S
GEORGETOWN     MOCLDY    78  76  93 CALM      29.92S
EASTON         CLEAR     81  78  90 CALM      29.95S
CAMBRIDGE      PTCLDY    77  73  88 SE3       29.91S
SALISBURY      MOCLDY    79  77  94 CALM      29.91S FOG
OCEAN CITY     CLOUDY    80  78  94 SW3       29.91S
WALLOPS ISLAND FAIR      81  77  88 SW6       29.92S
ACCOMACK*      NOT AVBL
$$

NCZ012>017-030>032-280600-
NORTH CENTRAL AND EASTERN NORTH CAROLINA

CITY           SKY/WX    TMP DP  RH WIND       PRES   REMARKS
ROANOKE RAPIDS FAIR      73  73 100 CALM      29.95S
RALEIGH        PTCLDY    77  72  84 CALM      29.96S
ELIZABETH CITY CLOUDY    81  75  82 SW8       29.93S
AHOSKIE*       MOCLDY    77  76  96 CALM      29.95S
EDENTON*       CLOUDY    83  73  69 W8        29.95S
CURRITUCK*     CLOUDY    82  77  84 SW3       29.94S
KILL DEVIL HLS CLOUDY    82  75  80 W6        29.93R
MANTEO           N/A     81  77  89 W9        29.94R
CAPE HATTERAS  CLOUDY    79  72  79 W7        29.92S
TARBORO*       NOT AVBL
GOLDSBORO      MOCLDY    83  81  95 SE6       29.94S HX  96
WASHINGTON     MOCLDY    77  73  86 SW5       29.95S
GREENVILLE     CLOUDY    81  73  78 SW8       29.97S
NEW BERN       PTCLDY    75  72  90 SW3       29.96F
WILMINGTON     CLEAR     82  78  88 SW6       29.96F
$$

VAZ048-280600-
ELSEWHERE

CITY           SKY/WX    TMP DP  RH WIND       PRES   REMARKS
HARRISBURG PA  PTCLDY    77  69  76 CALM      29.92R
BALTIMORE      MOCLDY    81  71  71 CALM      29.91R
ANNAPOLIS      PTCLDY    82  73  74 CALM      29.90R
ANDREWS AFB    FAIR      77  72  85 S3        29.91S
PHILADELPHIA   CLEAR     79  71  76 CALM      29.92R
GREENSBORO     MOCLDY    75  73  93 CALM      29.98S
ROCKY MOUNT    CLOUDY    78  75  90 CALM      29.95F
$$

VAZ100-280600-
MARINE

STATION/POSITION TIME  TEMP    WIND        PRES    WAVE   SWELL
                       AIR SEA DIR/SP/G            HT/PER HT/PER
                 (UTC) (F)     (DEG/KT/KT) (MB)    (FT/S) (FT/S)
CAPE MAY NJ      0400   74 72  120/  2/  3 1012.4S
LEWES DE         0400   80 72  190/  4/  5 1012.7R
OCEAN-CITY-INLET 0400   76 77  210/  4/  5 1013.4R
WACHAPREAGUE VA  0400   82 88  200/  7/  8 1013.0F
THOMAS POINT MD  0500   84 84  220/  7/  8 1014.1R
GOOSES REEF MD   0500   84 85  240/  8/  8 1013.7F   0
COVE POINT MD    0400   84     270/  6/  9 1013.2F
SOLOMONS ISLAND  0400   83 86  260/  2/  3   N/A
BISHOPS HEAD MD  0400   85     190/  6/  7 1013.1S
PINEY POINT MD   0400           CALM  /  2   N/A
POTOMAC MD       0500   82 86  250/  6/  6 1012.0R   1/ 2
CAMBRIDGE MD     0400   84 88  190/  2/  3 1011.9F
LEWISETTA VA     0400   80 88  250/  7/  8 1012.5S
RAPPAHANNOCK LGT 0400          160/  7/  8 1013.5F
STINGRAY PT      0500   84 87  150/  6/  6 1013.5R   0
YORK RVR RNG VA  0400   84     130/  4/  5 1012.7R
YORKTOWN VA      0400   81 85  250/  2/  2 1012.7R
JAMESTOWN VA     0500   81 89  360/  2/  4   N/A
DOMINION TERM VA 0400   85     160/  8/ 10 1013.0F
KIPTOPEKE VA     0400      80  150/  6/  8   N/A
CHES BAY BRIDGE  0400   83 82  140/  6/  7 1013.2R
CAPE HENRY VA    0400   81     140/  5/  7   N/A
WILLOUBY STN VA  0400   85     130/  5/  7   N/A
CAPE HENRY BUOY  0412      76                N/A     1/ 5
1ST LANDING BUOY 0500   81 81  170/  4/  4 1012.6F   1/ 4
CAPE CHARLES BUO 0426      78                N/A     1/ 8
OFFSHORE WE BUOY 0421      82                N/A     2/ 6
64NM E OF VA BCH 0450   83 83  210/  6/  8 1012.9R   2/ 6   2/ 6
DUCK PIER NC     0400   83 67  230/ 10/ 14 1012.6R
44100 DUCK FRF   0405      76                N/A     1/ 8
44056 DUCK FRF   0411      72                N/A     1/ 8
OREGON INLET NC  0400   82 80  240/ 17/ 19 1012.6F
HATTERAS NC      0400   80 83  230/ 10/ 16 1012.9F
DIAMOND SHLS NC  0450   83 84  250/ 19/ 23 1012.9F   3/ 4   2/ 7
CAPE LOOKOUT NC  0500   80     240/ 10/ 12 1012.6F
$$




USA.gov is the U.S. government's official web portal to all federal, state and local government web resources and services.